Weather History for KLUK - August, 2014

Change the Weather History Date:

Saturday, August 23, 2014

  Actual Average Record
Temperature  
Mean Temperature 80 °F -  
Max Temperature 91 °F 84 °F 102 °F (2007)
Min Temperature 69 °F 64 °F 48 °F (1950)
Cooling Degree Days 15    
Growing Degree Days 30 (Base 50)    
Moisture  
Dew Point 72 °F    
Average Humidity 90    
Maximum Humidity 100    
Minimum Humidity 55    
Precipitation  
Precipitation 0.08 in - - ()
Sea Level Pressure  
Sea Level Pressure 29.98 in    
Wind  
Wind Speed 1 mph (NE)    
Max Wind Speed 17 mph    
Max Gust Speed -    
Visibility 4 miles    
Events Fog , Rain , Thunderstorm    
Averages and records for this station are not official NWS values.
T = Trace of Precipitation, MM = Missing Value Source: NWS Daily Summary

Daily Weather History Graph

Daily Weather History Graph

Search for Another Location

Airport or City:

Trip Planner

Search our weather history database for the weather conditions in past years. The results will help you decide how hot, cold, wet, or windy it might be!

Date:

Astronomy

Aug. 23, 2014 Rise Set
Actual Time 6:58 AM EDT 8:21 PM EDT
Civil Twilight 6:30 AM EDT 8:49 PM EDT
Nautical Twilight 5:56 AM EDT 9:22 PM EDT
Astronomical Twilight 5:21 AM EDT 9:58 PM EDT
Moon 5:13 AM EDT (8/23) 7:05 PM EDT (8/23)
Length of Visible Light 14h 19m
Length of Day
13h 23m
Waning Crescent, 3% of the Moon is Illuminated
Aug 23
Waning Crescent
Aug 25
New
Sep 2
First Quarter
Sep 8
Full
Sep 15
Last Quarter

Hourly Weather History & Observations

Time (EDT) Temp. Heat Index Dew Point Humidity Pressure Visibility Wind Dir Wind Speed Gust Speed Precip Events Conditions
12:53 AM 73.0 °F - 72.0 °F 96% 29.99 in 7.0 mi Calm Calm - N/A   Overcast
1:53 AM 72.0 °F - 72.0 °F 100% 29.98 in 3.0 mi Calm Calm - N/A   Scattered Clouds
1:56 AM 72.0 °F - 72.0 °F 100% 29.99 in 1.5 mi Calm Calm - N/A   Scattered Clouds
2:10 AM 73.0 °F - 72.0 °F 96% 29.99 in 3.0 mi Calm Calm - N/A   Partly Cloudy
2:16 AM 72.0 °F - 71.1 °F 97% 29.99 in 1.5 mi Calm Calm - N/A   Clear
2:27 AM 72.0 °F - 71.1 °F 97% 29.98 in 3.0 mi Calm Calm - N/A   Clear
2:35 AM 72.0 °F - 71.1 °F 97% 29.98 in 1.8 mi Calm Calm - N/A   Clear
2:43 AM 70.0 °F - 70.0 °F 100% 29.98 in 0.2 mi SSW 3.5 mph - N/A Fog Fog
2:53 AM 70.0 °F - 70.0 °F 100% 29.97 in 0.5 mi SSW 5.8 mph - N/A Fog Fog
3:12 AM 71.1 °F - 70.0 °F 96% 29.98 in 0.5 mi Calm Calm - N/A Fog Fog
3:20 AM 71.1 °F - 71.1 °F 100% 29.99 in 1.2 mi Calm Calm - N/A   Partly Cloudy
3:34 AM 71.1 °F - 70.0 °F 96% 29.98 in 3.0 mi Calm Calm - N/A   Partly Cloudy
3:41 AM 70.0 °F - 70.0 °F 100% 29.98 in 1.5 mi Calm Calm - N/A   Partly Cloudy
3:44 AM 70.0 °F - 70.0 °F 100% 29.98 in 0.8 mi Calm Calm - N/A   Mist
3:53 AM 71.1 °F - 71.1 °F 100% 29.97 in 0.5 mi Calm Calm - N/A Fog Fog
4:23 AM 70.0 °F - 70.0 °F 100% 29.98 in 0.2 mi Calm Calm - N/A Fog Fog
4:29 AM 70.0 °F - 69.1 °F 97% 29.98 in 1.0 mi Calm Calm - N/A   Mist
4:36 AM 71.1 °F - 70.0 °F 96% 29.98 in 0.2 mi Calm Calm - N/A Fog Fog
4:53 AM 69.8 °F - 69.8 °F 100% 29.98 in 0.2 mi Calm Calm - N/A Fog Fog
5:31 AM 70.0 °F - 70.0 °F 100% 29.98 in 0.2 mi NE 3.5 mph - N/A Fog Fog
5:53 AM 70.0 °F - 70.0 °F 100% 29.97 in 0.2 mi Calm Calm - N/A Fog Fog
7:53 AM 71.6 °F - 71.6 °F 100% 30.01 in 0.2 mi Calm Calm - N/A Fog Fog
8:32 AM 72.0 °F - 72.0 °F 100% 30.01 in 0.5 mi NE 3.5 mph - N/A Fog Fog
8:40 AM 73.0 °F - 72.0 °F 96% 30.01 in 2.0 mi NE 4.6 mph - N/A   Overcast
8:53 AM 73.0 °F - 73.0 °F 100% 30.00 in 1.5 mi NNE 3.5 mph - N/A   Mostly Cloudy
9:22 AM 73.9 °F - 73.9 °F 100% 30.01 in 3.0 mi Calm Calm - N/A   Scattered Clouds
9:53 AM 75.9 °F - 73.9 °F 94% 30.00 in 9.0 mi NE 4.6 mph - N/A   Overcast
10:23 AM 78.1 °F - 73.9 °F 87% 30.02 in 9.0 mi North 4.6 mph - N/A   Overcast
10:53 AM 80.1 °F 84.5 °F 73.9 °F 81% 30.01 in 10.0 mi Calm Calm - N/A   Mostly Cloudy
11:19 AM 81.0 °F 86.2 °F 73.9 °F 79% 30.02 in 10.0 mi Calm Calm - N/A   Scattered Clouds
11:51 AM 84.2 °F 90.9 °F 73.4 °F 70% 30.02 in 10.0 mi Calm Calm - N/A   Mostly Cloudy
11:53 AM 84.9 °F 92.1 °F 73.9 °F 69% 30.01 in 10.0 mi North - - N/A   Mostly Cloudy
12:06 PM 84.9 °F 91.4 °F 73.0 °F 67% 30.02 in 10.0 mi North - - N/A   Mostly Cloudy
12:53 PM 84.9 °F 90.7 °F 72.0 °F 65% 30.00 in 10.0 mi Variable 3.5 mph - N/A   Mostly Cloudy
1:53 PM 88.0 °F 96.5 °F 73.9 °F 63% 29.99 in 10.0 mi NE 3.5 mph - N/A   Mostly Cloudy
2:53 PM 87.1 °F 93.6 °F 72.0 °F 61% 29.98 in 10.0 mi Variable 5.8 mph - N/A   Partly Cloudy
3:53 PM 89.1 °F 96.0 °F 72.0 °F 57% 29.96 in 10.0 mi Calm Calm - N/A   Partly Cloudy
4:53 PM 91.4 °F 100.1 °F 73.4 °F 55% 29.94 in 10.0 mi North 4.6 mph - N/A   Partly Cloudy
5:20 PM 87.1 °F 95.4 °F 73.9 °F 65% 29.93 in 10.0 mi ENE 5.8 mph - N/A   Overcast
5:53 PM 84.0 °F 91.9 °F 75.0 °F 74% 29.91 in 10.0 mi Calm Calm - 0.00 in Rain Light Rain
6:53 PM 84.9 °F 93.3 °F 75.0 °F 72% 29.92 in 10.0 mi Calm Calm - 0.00 in Thunderstorm Thunderstorm
7:51 PM 78.8 °F - 75.2 °F 89% 29.96 in 6.0 mi NNW 17.3 mph - N/A Rain Light Rain
7:53 PM 78.1 °F - 75.0 °F 90% 29.95 in 5.0 mi NNW 17.3 mph - 0.04 in Rain Rain
8:53 PM 75.9 °F - 75.0 °F 97% 29.96 in 8.0 mi East 3.5 mph - 0.04 in   Scattered Clouds
9:53 PM 77.0 °F - 75.0 °F 94% 29.99 in 10.0 mi Calm Calm - N/A   Partly Cloudy
10:20 PM 75.0 °F - 73.9 °F 96% 30.00 in 4.0 mi SE 3.5 mph - N/A   Clear
10:46 PM 73.9 °F - 73.9 °F 100% 29.99 in 1.8 mi Calm Calm - N/A   Clear
10:53 PM 73.9 °F - 73.9 °F 100% 29.98 in 0.8 mi Calm Calm - N/A   Clear
11:10 PM 75.0 °F - 73.9 °F 96% 29.99 in 2.0 mi Calm Calm - N/A   Clear
11:19 PM 75.0 °F - 75.0 °F 100% 29.99 in 4.0 mi Calm Calm - N/A   Clear
11:34 PM 73.9 °F - 73.9 °F 100% 29.98 in 2.5 mi Calm Calm - N/A   Clear
11:44 PM 73.9 °F - 73.9 °F 100% 29.98 in 4.0 mi Calm Calm - N/A   Clear
11:53 PM 73.9 °F - 73.9 °F 100% 29.97 in 3.0 mi Calm Calm - N/A   Clear